CAPE
18 19 33 28 31 25 6 7 32 15 3 0 0 0 1 0 0 0 0 0 0 0 0 0 0 0 0 0 0 0 0 0 0 0 0 0 0 0 0 0 0 0 0 0 0 0 17
36 32 31 37 32 31 21 26 10 22 16 2 0 0 0 0 0 0 0 0 0 0 0 0 0 0 0 0 0 0 0 0 0 0 0 0 0 0 0 0 0 0 0 12 67 15 48
41 45 34 28 26 34 35 21 23 20 23 13 5 0 0 0 1 0 0 0 0 0 0 0 0 0 0 0 0 0 0 0 0 0 0 0 0 0 0 0 0 0 0 20 118 72 110
49 40 48 35 23 27 31 33 28 27 20 27 25 4 0 0 0 0 0 0 0 0 0 0 0 0 0 0 0 0 0 0 0 0 0 0 0 0 0 0 0 0 0 20 39 144 27
50 49 32 55 32 28 24 28 33 28 25 22 34 19 0 0 0 1 0 0 0 0 0 0 0 0 0 0 0 0 0 0 0 0 0 0 0 0 0 0 0 0 0 0 22 59 86
23 23 52 63 56 36 36 26 32 29 22 20 21 18 5 0 0 0 0 0 0 0 0 4 0 0 0 0 0 0 0 0 0 0 0 0 0 0 0 0 0 10 1 0 0 0 55
43 36 32 55 78 37 46 43 27 32 25 14 25 24 7 0 0 1 0 0 0 0 0 0 0 0 0 0 0 0 0 0 0 0 0 0 0 0 0 0 0 0 0 0 0 0 56
64 51 54 37 48 74 55 49 34 30 31 28 11 29 13 0 0 0 0 0 0 0 0 0 0 0 0 0 0 0 0 0 0 0 0 0 0 0 0 0 0 0 1 3 0 0 0
68 62 57 49 27 53 70 58 39 37 31 33 20 23 16 0 1 0 0 0 0 0 0 0 0 0 0 0 0 0 0 0 0 0 0 0 0 0 0 0 0 0 0 0 1 0 0
70 65 67 67 46 35 66 89 66 45 40 29 26 18 5 0 2 0 0 0 0 0 0 0 0 0 0 0 0 0 0 0 0 0 0 0 0 0 0 0 0 0 0 0 0 0 1
59 69 70 69 69 41 17 37 86 61 52 46 25 20 9 7 0 0 0 0 0 0 0 0 0 0 0 0 0 0 0 0 0 0 0 0 0 0 0 0 0 0 0 0 0 0 0
80 68 68 76 61 48 34 31 64 77 53 52 33 24 21 11 22 0 0 0 0 2 0 0 0 0 0 0 0 0 0 0 0 0 0 0 0 0 0 0 0 0 0 0 0 0 0
99 95 87 74 69 65 51 44 46 66 63 65 47 28 38 52 5 0 0 0 14 3 0 0 0 0 0 0 0 0 0 0 0 0 0 0 0 0 0 0 0 0 0 0 0 0 0
97 93 100 99 75 75 65 42 30 53 60 59 59 29 27 21 20 0 20 16 7 0 0 0 0 0 0 0 0 0 0 0 0 0 0 0 0 0 0 0 0 0 0 3 0 0 0
98 97 86 89 101 78 73 48 29 43 69 60 84 41 20 10 0 0 54 34 0 0 0 0 0 0 0 0 0 0 0 0 0 0 0 0 0 0 0 0 0 0 0 0 0 0 0
118 97 91 73 86 102 71 54 36 41 82 57 34 56 34 5 10 17 16 3 0 0 0 0 0 0 0 0 0 0 0 0 0 0 0 0 0 0 0 0 0 0 0 0 1 0 0
87 126 110 78 63 83 75 55 35 45 90 71 39 37 3 21 63 26 12 9 2 0 0 0 0 0 0 0 0 0 0 0 0 0 0 0 0 0 0 0 0 0 0 0 0 0 0
84 121 130 93 60 74 64 49 37 31 86 49 30 3 0 30 13 31 21 12 2 0 0 0 0 0 0 0 0 0 0 0 0 0 0 0 0 0 0 0 0 0 0 0 0 0 0
82 83 87 97 69 62 55 34 17 27 81 11 25 27 21 3 4 10 12 25 8 0 0 0 0 0 0 0 0 0 0 0 0 0 0 0 0 0 0 0 0 0 0 0 0 0 0
77 74 82 127 103 67 55 29 12 22 95 7 12 7 79 55 3 0 19 18 29 5 0 0 0 0 0 0 0 0 0 0 0 0 0 0 0 0 0 0 0 0 0 0 3 0 0
64 67 75 86 90 63 55 31 13 17 65 12 3 15 2 32 13 0 3 2 8 11 0 0 0 0 0 0 0 0 0 0 0 0 0 0 0 0 0 0 0 0 0 0 0 0 0
86 64 66 76 48 75 47 26 21 28 83 10 1 5 1 18 7 22 30 11 8 8 0 0 0 0 0 0 0 0 0 0 0 0 0 0 0 0 0 0 0 0 0 0 0 0 0
84 82 63 86 85 65 39 27 35 59 103 8 4 0 2 0 12 12 8 9 16 4 0 0 0 0 0 0 0 0 0 0 0 0 0 0 0 0 0 0 0 0 0 0 0 0 0
85 83 74 89 69 74 30 28 48 50 37 21 2 0 54 13 7 1 1 25 6 3 0 0 0 0 0 0 0 0 0 0 0 0 0 0 0 0 0 0 0 0 0 0 0 0 0
66 81 56 114 101 53 23 39 41 30 57 14 0 3 64 10 17 1 0 22 36 25 1 0 0 0 0 0 0 0 0 0 0 0 0 0 0 0 0 0 0 0 0 0 0 0 0
66 59 66 91 68 28 22 35 30 26 104 18 0 0 22 69 31 10 0 0 21 5 0 0 0 0 0 0 0 0 0 0 0 0 0 0 0 0 0 0 0 0 0 0 0 0 0
31 14 37 56 25 22 30 31 27 53 102 16 2 0 26 78 34 54 32 0 1 0 0 0 0 0 0 0 0 0 0 0 0 0 0 0 0 0 0 0 0 0 0 0 0 0 0
32 28 54 11 23 35 23 34 44 55 59 6 4 0 42 103 15 41 1 11 0 0 0 0 0 0 0 0 0 0 0 0 0 0 0 0 0 0 0 0 0 0 0 0 0 0 0
29 9 15 23 35 31 31 40 55 77 48 15 9 8 18 23 58 0 0 0 0 0 0 0 0 0 0 0 0 0 0 0 0 0 0 0 0 0 0 0 0 0 0 0 0 0 0
CIN
-1 -1 -1 -4 -1 -1 0 0 -2 -3 -4 0 0 0 0 0 0 0 0 0 0 0 0 0 0 0 0 0 0 0 0 0 0 0 0 0 0 0 0 0 0 0 0 0 0 0 -340
-1 -2 -1 -2 -4 -2 -1 -1 0 -3 -2 -2 0 0 0 -7 0 0 0 0 0 0 0 0 0 0 0 0 0 0 0 0 0 0 0 0 0 0 0 0 0 0 0 -194 -292 -334 -297
0 0 -2 -3 -2 -4 -3 -1 -3 -3 -4 -2 -1 -11 0 -1 -18 0 0 0 0 0 0 0 0 0 0 0 0 0 0 0 0 0 0 0 0 0 0 0 0 0 0 -74 -193 -225 -192
0 0 0 -2 -4 -4 -4 -5 -4 -3 -4 -1 0 -2 0 0 -5 0 0 0 0 0 0 0 0 0 0 0 0 0 0 0 0 0 0 0 0 0 0 0 0 0 0 -44 -141 -154 -274
0 0 0 0 -3 -7 -5 -4 -6 -3 -1 -3 -1 -2 0 0 0 -9 0 0 0 0 0 0 0 0 0 0 0 0 0 0 0 0 0 0 0 0 0 0 0 0 0 0 -47 -156 -136
0 0 0 0 0 -3 -5 -5 -4 -5 -3 -2 -4 -1 -3 0 0 -20 0 0 0 0 0 0 0 0 0 0 0 0 0 0 0 0 0 0 0 0 0 0 -32 -73 -55 0 0 0 -121
0 0 0 0 0 0 -1 -4 -3 -6 -5 -2 -3 -2 -3 -1 0 -1 0 0 0 0 0 0 0 0 0 0 0 0 0 0 0 0 0 0 0 0 0 0 0 0 0 0 0 0 -77
0 0 0 0 0 0 0 -1 -6 -7 -5 -7 -1 -5 -3 0 0 0 0 0 0 0 0 0 0 0 0 0 0 0 0 0 0 0 0 0 0 0 0 0 0 0 -58 -48 0 0 0
0 0 0 0 0 0 0 0 -1 -8 -7 -8 -6 -7 -5 0 -1 0 0 0 0 0 0 0 0 0 0 0 0 0 0 0 0 0 0 0 0 0 0 0 0 0 0 0 -11 0 0
0 0 0 0 0 0 0 0 -1 -5 -8 -13 -10 -6 -5 0 0 0 0 0 0 0 0 0 0 0 0 0 0 0 0 0 0 0 0 0 0 0 0 0 0 0 0 0 0 0 -11
0 0 0 0 0 0 0 0 -2 -1 -10 -7 -17 -12 -15 -5 0 0 0 0 0 0 0 0 0 0 0 0 0 0 0 0 0 0 0 0 0 0 0 0 0 0 0 0 0 0 0
0 0 0 0 0 0 0 0 0 -2 -3 -12 -12 -14 -16 -3 0 0 0 0 0 0 0 0 0 0 0 0 0 0 0 0 0 0 0 0 0 0 0 0 0 0 0 0 0 0 0
0 0 0 0 0 0 0 0 0 -2 -2 -9 -9 -13 -11 -2 -1 0 0 0 -1 -1 0 0 0 0 0 0 0 0 0 0 0 0 0 0 0 0 0 0 0 0 0 0 0 0 -33
0 0 0 0 0 0 0 0 0 0 -8 -5 -14 -16 -10 -4 -8 0 -12 -2 -1 0 0 0 0 0 0 0 0 0 0 0 0 0 0 0 0 0 0 0 0 0 0 -29 0 0 0
0 0 0 0 0 0 0 0 0 0 -6 -4 -17 -7 -8 -15 -1 0 -1 0 0 0 0 0 0 0 0 0 0 0 0 0 0 0 0 0 0 0 0 0 0 0 0 0 0 0 0
0 0 0 0 0 0 0 0 0 0 -5 -2 -9 -1 0 -35 -7 -3 -2 -2 -3 0 0 0 0 0 0 0 0 0 0 0 0 0 0 0 0 0 0 0 0 0 0 0 -4 0 0
0 0 0 0 0 0 0 0 -1 0 -3 -6 -8 -2 -18 -24 -2 -8 -1 -1 -4 0 0 0 0 0 0 0 0 0 0 0 0 0 0 0 0 0 0 0 0 0 0 0 0 0 0
0 0 0 0 -1 0 0 0 -1 -2 -4 -2 -2 -1 0 -9 -5 0 0 -1 -5 0 0 0 0 0 0 0 0 0 0 0 0 0 0 0 0 0 0 0 0 0 0 0 -1 0 0
-34 -8 -1 -3 0 0 -3 -5 -1 -2 -3 -2 -3 0 -48 -16 -6 0 0 0 -3 0 0 0 0 0 0 0 0 0 0 0 0 0 0 0 0 0 0 0 0 0 0 0 0 0 0
0 -71 -35 -15 -1 0 0 0 -5 -6 -1 -9 -3 -3 0 -1 -2 0 -1 0 0 -4 0 0 0 0 0 0 0 0 0 0 0 0 0 0 0 0 0 0 0 0 0 0 -43 0 0
0 0 0 0 0 0 0 0 0 -7 -1 -7 -5 -2 -7 0 0 0 -2 -2 0 -2 -1 0 0 0 0 0 0 0 0 0 0 0 0 0 0 0 0 0 0 0 0 0 0 0 0
0 0 0 0 -1 0 0 0 0 -2 -1 -1 0 -7 -70 -12 0 0 -2 -3 0 0 0 0 0 0 0 0 0 0 0 0 0 0 0 0 0 0 0 0 0 0 0 0 0 0 0
-2 0 0 0 0 0 0 0 0 0 -1 -1 -2 0 -18 -1 0 0 -1 0 -3 -4 0 0 0 0 0 0 0 0 0 0 0 0 0 0 0 0 0 0 0 0 0 0 0 0 0
-1 0 0 0 0 0 0 0 0 0 -3 -8 -13 0 -15 -15 -3 -1 -1 0 -1 -5 0 0 0 0 0 0 0 0 0 0 0 0 0 0 0 0 0 0 0 0 0 0 0 0 0
0 0 -1 0 0 0 0 0 0 -1 -2 -14 0 -17 -32 -19 -5 -2 0 -3 -9 -9 -4 0 0 0 0 0 0 0 0 0 0 0 0 0 0 0 0 0 0 0 0 0 0 0 0
0 0 0 0 0 0 0 0 0 0 0 -11 0 0 -86 -6 -18 -17 -2 0 -9 -9 -2 -2 0 0 0 0 0 0 0 0 0 0 0 0 0 0 0 0 0 0 0 0 0 0 0
-1 -1 -8 -3 0 0 0 0 0 -1 0 -11 0 0 -83 -3 -47 -26 -11 0 -3 -2 0 0 0 0 0 0 0 0 0 0 0 0 0 0 0 0 0 0 0 0 0 0 0 0 0
-4 -16 -1 0 0 0 0 0 0 0 0 -15 0 0 -33 -12 -23 -44 -8 -42 0 0 0 0 0 0 0 0 0 0 0 0 0 0 0 0 0 0 0 0 0 0 0 0 0 0 0
0 0 0 0 0 0 0 0 0 -1 -1 -13 -1 -20 -2 -5 -2 0 0 0 0 0 0 0 0 0 0 0 0 0 0 0 0 0 0 0 0 0 0 0 0 0 0 0 0 0 0
Wind_Speed
16 16 16 16 14 16 17 16 12 11 10 10 11 10 13 10 9 8 9 10 11 10 11 13 14 15 6 3 10 3 6 11 8 6 5 4 4 4 1 2 4 4 5 5 6 4 3
16 16 16 16 15 15 17 14 16 11 10 11 11 11 11 11 10 9 8 10 11 10 9 11 11 12 3 5 2 6 6 2 7 4 3 4 3 3 1 3 4 4 5 5 2 3 3
20 17 17 16 16 16 15 14 12 12 11 11 11 11 12 11 10 10 9 10 12 10 10 10 7 2 2 16 4 3 3 3 4 4 3 4 3 2 1 3 2 3 6 2 3 2 2
22 20 19 17 16 15 15 15 13 13 11 11 11 10 11 12 10 10 10 10 13 11 11 10 2 1 9 4 1 5 4 4 5 4 2 3 3 2 2 3 4 1 2 3 1 6 3
24 22 21 20 17 17 16 15 14 14 13 11 9 10 10 11 10 8 8 10 13 11 3 4 1 2 11 5 4 4 8 5 4 3 2 0 1 1 2 2 2 3 2 2 2 3 4
25 24 23 20 20 19 17 16 14 14 13 13 9 9 10 10 11 8 7 10 7 0 3 3 2 2 6 3 2 1 4 4 3 5 4 2 3 1 2 2 4 3 2 2 2 2 3
27 25 24 24 21 21 21 18 17 14 14 14 10 9 8 11 10 7 4 4 3 2 3 9 4 5 4 6 2 2 3 6 4 3 4 1 2 6 10 4 2 3 2 2 1 2 4
27 26 25 25 24 22 24 20 17 15 14 11 13 8 8 8 10 3 2 1 3 2 10 12 18 13 9 2 5 4 7 6 5 5 3 2 6 7 3 3 3 4 1 2 3 2 4
29 28 28 26 26 24 24 21 19 16 15 13 10 8 7 8 4 2 3 5 2 4 4 9 8 7 7 11 9 7 11 5 5 6 6 5 3 4 4 4 6 4 5 4 1 1 2
31 30 29 28 26 25 24 21 21 18 15 14 11 9 8 8 1 3 3 2 4 4 4 8 6 7 7 8 6 8 9 6 2 11 8 5 2 6 5 5 6 3 5 5 2 2 2
32 31 30 30 28 26 24 23 19 21 17 14 13 11 9 9 1 3 3 3 5 1 4 3 3 3 7 8 7 7 6 3 9 7 6 5 5 4 4 6 6 5 2 2 2 3 1
33 32 32 31 30 28 25 24 20 19 18 16 15 13 10 3 3 4 2 2 2 2 10 2 5 6 7 3 2 5 5 4 4 6 1 4 1 3 4 1 4 4 3 5 4 2 1
34 33 32 32 31 30 27 25 23 20 20 17 15 14 11 4 4 5 3 1 3 8 5 3 4 5 5 6 3 4 8 7 7 7 5 1 2 2 3 3 2 2 3 0 1 1 3
36 35 33 33 32 32 29 27 25 22 22 19 15 14 10 7 2 2 4 3 11 5 7 4 2 4 6 5 3 3 11 11 3 6 5 6 3 7 5 4 5 4 3 4 3 3 1
37 37 36 34 33 33 31 28 26 23 20 22 15 6 5 6 7 1 5 10 7 8 4 3 2 4 4 4 5 4 7 14 9 7 7 6 5 1 1 2 2 4 2 1 7 2 0
37 37 37 36 34 34 33 30 27 24 23 23 8 7 9 8 8 4 7 19 9 6 0 2 5 5 9 6 5 7 8 5 7 8 5 7 3 1 1 2 4 1 8 3 1 4 3
34 35 37 37 35 35 35 32 29 26 26 25 8 7 8 12 8 8 17 15 18 4 3 1 2 2 4 6 7 6 10 2 10 8 4 5 3 1 1 5 8 4 2 3 4 1 3
33 34 35 37 36 36 37 35 31 28 27 21 8 10 7 15 14 10 19 17 5 18 1 3 1 4 3 5 6 6 11 7 9 13 11 6 5 5 6 1 1 2 6 6 4 4 0
33 33 33 37 36 37 38 37 34 32 33 11 7 5 6 14 16 18 16 22 14 9 12 6 4 2 2 1 4 5 6 4 9 9 12 9 2 3 1 2 2 3 4 4 5 3 7
35 35 34 35 37 37 40 39 37 35 35 11 6 7 7 12 14 19 21 21 24 16 5 3 3 1 3 2 3 2 5 3 7 4 5 10 4 6 10 7 5 4 6 7 6 3 5
37 36 36 35 35 39 41 40 39 37 39 10 6 5 7 13 22 18 21 18 26 14 19 8 3 7 2 4 2 2 2 3 2 4 4 5 7 6 4 4 5 5 5 12 12 10 9
38 38 37 35 34 39 43 42 40 37 40 9 9 7 3 5 23 21 19 21 25 22 12 18 12 9 10 6 2 4 4 1 1 2 2 2 5 5 3 2 6 5 7 7 7 4 9
37 38 37 34 34 37 44 43 40 39 34 7 4 2 7 16 19 19 21 21 15 17 16 9 14 3 3 13 3 2 3 5 5 2 5 4 6 5 5 2 5 4 8 9 5 5 6
41 38 37 34 36 41 43 42 40 41 36 4 7 4 8 5 14 18 22 16 23 21 8 19 3 12 4 1 2 2 3 2 4 5 5 6 6 2 3 1 5 3 1 3 9 6 8
35 36 34 33 34 41 43 42 40 39 40 4 6 3 5 4 11 16 18 20 5 15 19 9 11 5 0 1 1 1 2 2 1 1 4 3 5 4 6 5 3 2 5 8 8 12 7
31 31 28 31 38 42 41 39 39 38 35 8 5 3 4 8 7 7 18 19 13 9 5 4 2 3 5 3 2 5 6 4 2 2 3 5 4 4 3 5 9 9 5 6 4 9 9
25 23 21 36 40 40 39 37 36 35 33 10 5 4 3 3 1 5 13 12 14 5 5 5 10 3 4 2 1 3 3 4 4 5 6 4 2 7 3 5 6 6 5 6 6 10 6
18 16 32 36 38 36 35 33 34 35 31 9 6 5 2 2 3 3 3 6 9 13 8 5 5 3 2 4 3 3 3 5 5 4 5 7 8 5 3 1 8 8 6 10 8 3 7
23 32 35 34 33 31 31 30 32 34 30 11 5 2 3 2 1 1 3 5 3 17 12 9 6 6 7 4 4 3 3 1 5 10 2 5 7 6 10 8 2 14 4 5 3 4 6
Wind_Direction
284 285 292 296 289 290 286 290 306 309 309 307 309 308 290 277 279 285 297 303 306 312 317 322 328 331 340 350 252 355 69 118 124 152 166 165 176 165 192 214 163 216 266 295 285 239 207
270 271 276 284 290 283 288 288 290 296 301 308 304 306 295 283 279 278 288 296 300 305 308 313 326 330 311 286 196 108 99 159 148 154 158 144 228 226 223 227 219 207 266 283 356 8 115
277 266 264 263 275 280 279 277 274 286 296 299 301 304 308 294 278 278 285 294 295 299 292 298 312 329 269 244 125 337 297 209 185 167 167 200 210 172 114 276 290 275 301 29 17 100 96
284 292 269 260 260 266 273 278 271 273 276 288 295 300 304 304 295 280 286 294 294 291 288 283 227 204 250 237 235 283 176 258 227 227 228 153 176 167 163 323 343 348 56 355 224 161 198
281 279 284 278 256 257 261 270 268 271 278 275 288 298 300 303 305 293 291 296 291 297 256 146 158 202 261 316 255 241 170 200 148 156 208 49 125 69 88 82 324 351 211 162 158 178 139
271 275 272 277 282 254 249 251 260 261 264 271 272 290 302 309 309 305 315 285 293 137 136 165 265 321 255 237 276 168 183 188 158 129 96 119 66 150 73 157 214 211 232 240 119 201 232
263 263 270 267 274 279 253 246 249 256 257 260 265 276 301 309 312 318 332 330 328 233 219 211 204 262 295 294 257 230 171 142 120 91 168 33 175 218 226 229 153 159 202 336 261 173 203
256 253 253 261 264 267 272 243 240 248 246 244 264 263 287 307 319 202 196 228 233 209 298 232 247 252 262 59 323 262 143 146 145 176 132 94 238 229 196 178 201 164 99 313 315 8 216
256 251 249 250 253 256 259 270 238 235 238 234 236 248 276 306 330 178 221 208 136 21 275 277 207 214 203 174 211 242 164 155 141 147 182 181 200 117 164 197 220 211 169 172 272 256 171
255 251 246 243 246 248 249 255 258 225 234 223 218 228 258 294 226 166 232 124 251 175 289 266 224 247 165 154 227 197 185 148 141 189 157 234 234 181 206 225 180 260 184 176 110 31 291
256 251 248 242 238 239 243 240 251 249 213 224 212 207 231 215 358 179 158 325 124 195 293 210 179 147 152 193 143 213 173 86 158 160 152 231 178 177 190 220 165 234 169 64 105 169 160
250 248 246 240 237 234 235 237 230 239 224 216 210 201 203 242 219 236 289 3 81 201 244 266 142 173 148 238 195 111 145 74 122 118 108 211 213 193 205 161 185 120 92 55 73 95 201
247 244 241 238 233 228 227 229 227 225 231 204 209 204 175 209 229 173 208 339 172 227 327 191 188 163 186 180 171 136 161 161 155 138 174 2 213 245 165 149 117 128 116 333 105 129 217
243 240 238 235 230 223 219 220 224 220 214 206 199 206 202 198 220 189 153 171 217 210 259 312 153 104 181 158 218 133 146 180 228 117 132 175 241 186 181 191 179 171 190 164 190 182 280
240 237 235 231 228 218 214 213 215 215 204 200 180 204 200 193 221 253 195 206 205 187 229 251 126 127 225 223 171 147 178 193 179 168 162 153 241 191 204 147 186 152 180 87 103 25 154
241 233 230 228 224 215 207 206 208 208 198 197 188 211 203 168 174 203 218 215 214 198 152 325 227 175 178 191 163 171 174 185 188 189 147 194 154 229 161 166 38 228 144 135 49 170 235
242 237 228 224 220 215 202 199 199 201 192 183 175 215 172 159 164 211 213 207 216 240 94 60 311 301 216 176 179 186 186 217 180 174 120 135 128 219 159 204 176 147 172 66 121 151 202
238 235 228 221 216 211 199 192 190 189 180 173 180 209 169 153 191 215 215 201 224 236 129 238 233 244 242 187 167 189 195 213 177 144 164 187 149 176 196 136 285 207 175 156 151 193 10
235 233 227 218 213 207 196 187 184 185 178 154 183 169 166 171 187 209 201 210 207 221 210 201 219 218 300 287 204 192 189 227 156 149 157 174 187 140 358 46 34 229 193 138 106 93 188
234 228 223 217 214 202 192 183 180 183 178 163 161 162 153 202 223 212 191 198 213 209 245 166 191 206 272 307 206 208 203 198 188 186 119 127 139 171 218 219 156 191 199 179 152 161 189
231 224 217 214 210 198 187 179 179 180 175 174 149 187 186 184 208 213 196 196 200 193 213 175 186 211 173 228 335 176 38 21 83 170 138 146 184 178 233 232 188 217 184 180 196 214 196
227 218 214 212 208 194 180 175 176 178 170 183 162 172 204 176 203 209 205 210 193 197 183 211 214 194 209 248 151 67 21 10 218 55 147 232 179 145 211 150 195 218 229 204 227 211 244
221 211 204 201 194 185 173 171 175 176 170 174 168 197 192 200 177 193 211 194 191 185 224 198 203 198 166 237 232 269 212 252 245 181 172 175 136 130 223 170 149 303 211 193 191 207 197
206 199 191 191 191 179 166 167 174 178 183 130 151 107 190 174 180 195 193 198 197 190 184 214 183 210 245 183 236 155 195 265 229 224 174 157 136 107 153 147 208 231 60 179 215 242 219
177 179 177 177 176 167 163 168 176 178 175 151 153 153 167 198 189 174 181 201 166 178 199 181 197 193 250 346 86 224 314 326 212 118 177 180 130 120 153 204 304 213 195 182 175 250 210
153 156 165 174 174 160 161 169 176 177 176 153 131 91 77 189 204 155 175 188 196 178 144 201 167 72 61 71 101 198 195 148 249 139 106 94 57 127 152 185 209 215 209 152 128 277 204
139 150 164 171 158 155 160 167 174 173 173 149 98 94 75 199 287 176 178 177 185 146 132 144 199 147 129 134 127 183 242 170 191 194 178 123 68 188 165 222 277 245 166 152 158 250 181
147 162 154 141 146 151 159 167 171 170 167 129 99 82 55 80 330 358 21 150 153 192 156 177 106 223 70 151 160 209 188 228 172 197 191 170 158 179 115 182 253 152 110 176 212 176 173
117 125 128 136 141 150 159 165 169 169 164 159 98 92 71 288 67 131 230 235 241 186 164 188 177 170 168 159 189 127 192 191 189 219 112 253 203 182 188 209 205 196 192 169 167 181 187